Tracking 22882 objects as of 18-Apr-2021
HD Live streaming from Space Station
objects crossing your sky now

COSMOS 2357

Track COSMOS 2357 now!
10-day predictions
COSMOS 2357 is classified as:


NORAD ID: 25368
Int'l Code: 1998-036F
Perigee: 1,301.7 km
Apogee: 1,868.6 km
Inclination: 82.6 °
Period: 117.7 minutes
Semi major axis: 7956 km
RCS: 1.0721 m2 (large)
Launch date: June 15, 1998
Source: Commonwealth of Independent States (former USSR) (CIS)
Launch site: PLESETSK MISSILE AND SPACE COMPLEX (PKMTR)

Satellites have a single simultaneous earth-space and space-earth channel.
aabbcc
Your satellite tracking list
Your tracking list is empty




NASA's NSSDC Master Catalog

Two Line Element Set (TLE):
1 25368U 98036F   21108.42946318  .00000030  00000-0  14183-3 0  9992
2 25368  82.5916   1.0038 0356275 150.9254 211.2180 12.23345741 20057
Source of the keplerian elements: AFSPC